Retour au catalogue

ATLAS 5 CENTAUR DEB

ActifHEO
NORAD 44675·DEBRIS·🇺🇸 United States

Lancé Oct 17, 2018 depuis Cape Canaveral Space Force Station

Loading…

Prochains Passages (prochaines 24 heures)

TLE

FraisSource: Space-Track

Époque: Sep 14, 2026, 06:37 UTC

1 44675U 18079AM  26257.27633717 -.00000181  00000-0  00000-0 0  9990
2 44675  13.5196  30.3481 4671546 321.9273  12.8159  1.80467886 48569

Suivez ATLAS 5 CENTAUR DEB en temps réel avec AllMySat

Download on the App Store